Great Bend, KS

12:12 AM CST on December 10, 2016 (GMT -0600)
Great Bend Municipal

Weather History for KGBD - August, 2014

Change the Weather History Date:

Sunday, August 31, 2014

  Actual Average Record
Temperature  
Mean Temperature 84 °F -  
Max Temperature 100 °F 90 °F 105 °F (1984)
Min Temperature 62 °F 65 °F 49 °F (1955)
Cooling Degree Days 19    
Growing Degree Days 34 (Base 50)    
Moisture  
Dew Point 61 °F    
Average Humidity 57    
Maximum Humidity 83    
Minimum Humidity 27    
Precipitation  
Precipitation 1.33 in - - ()
Sea Level Pressure  
Sea Level Pressure 29.77 in    
Wind  
Wind Speed 15 mph (South)    
Max Wind Speed 33 mph    
Max Gust Speed 62 mph    
Visibility 10 miles    
Events Thunderstorm    
Averages and records for this station are not official NWS values.
T = Trace of Precipitation, MM = Missing Value Source: NWS Daily Summary

Daily Weather History Graph

Daily Weather History Graph

Search for Another Location

Airport or City:

Trip Planner

Search our weather history database for the weather conditions in past years. The results will help you decide how hot, cold, wet, or windy it might be!

Date:

Astronomy

Aug. 31, 2014 Rise Set
Actual Time 7:04 AM CDT 8:06 PM CDT
Civil Twilight 6:36 AM CDT 8:33 PM CDT
Nautical Twilight 6:04 AM CDT 9:05 PM CDT
Astronomical Twilight 5:31 AM CDT 9:39 PM CDT
Moon 12:47 PM CDT (8/31) 11:27 PM CDT (8/31)
Length of Visible Light 13h 56m
Length of Day
13h 02m
Waxing Crescent, 32% of the Moon is Illuminated
Aug 31
Waxing Crescent
Sep 2
First Quarter
Sep 8
Full
Sep 15
Last Quarter
Sep 24
New

Hourly Weather History & Observations

Time (CDT) Temp. Heat Index Dew Point Humidity Pressure Visibility Wind Dir Wind Speed Gust Speed Precip Events Conditions
12:15 AM 73.4 °F - 57.2 °F 57% 29.88 in 10.0 mi SSE 12.7 mph - N/A   Mostly Cloudy
12:35 AM 73.4 °F - 57.2 °F 57% 29.88 in 10.0 mi SSE 13.8 mph - N/A   Partly Cloudy
12:55 AM 73.4 °F - 55.4 °F 53% 29.88 in 10.0 mi South 12.7 mph - N/A   Clear
1:15 AM 71.6 °F - 55.4 °F 57% 29.88 in 10.0 mi South 10.4 mph - N/A   Clear
1:35 AM 71.6 °F - 55.4 °F 57% 29.87 in 10.0 mi South 12.7 mph - N/A   Clear
1:55 AM 71.6 °F - 55.4 °F 57% 29.86 in 10.0 mi SSE 15.0 mph - N/A   Clear
2:15 AM 71.6 °F - 57.2 °F 60% 29.86 in 10.0 mi SSE 13.8 mph - N/A   Clear
2:35 AM 71.6 °F - 57.2 °F 60% 29.85 in 10.0 mi SSE 12.7 mph - N/A   Clear
2:55 AM 71.6 °F - 57.2 °F 60% 29.85 in 10.0 mi SSE 12.7 mph - N/A   Clear
3:15 AM 71.6 °F - 57.2 °F 60% 29.84 in 10.0 mi SSE 11.5 mph - N/A   Partly Cloudy
3:35 AM 71.6 °F - 57.2 °F 60% 29.84 in 10.0 mi SSE 11.5 mph - N/A   Partly Cloudy
3:55 AM 69.8 °F - 57.2 °F 64% 29.84 in 10.0 mi South 10.4 mph - N/A   Clear
4:15 AM 71.6 °F - 57.2 °F 60% 29.84 in 10.0 mi South 10.4 mph - N/A   Clear
4:35 AM 71.6 °F - 57.2 °F 60% 29.85 in 10.0 mi South 9.2 mph - N/A   Clear
4:55 AM 71.6 °F - 57.2 °F 60% 29.84 in 10.0 mi South 9.2 mph - N/A   Clear
5:15 AM 71.6 °F - 57.2 °F 60% 29.84 in 10.0 mi South 6.9 mph - N/A   Clear
5:35 AM 71.6 °F - 57.2 °F 60% 29.83 in 10.0 mi South 9.2 mph - N/A Thunderstorm Scattered Clouds
5:55 AM 68.0 °F - 60.8 °F 78% 29.85 in 10.0 mi SW 10.4 mph - 0.02 in Thunderstorm Thunderstorm
6:15 AM 69.8 °F - 60.8 °F 73% 29.85 in 10.0 mi Calm Calm - 0.04 in Thunderstorm Thunderstorm
6:35 AM 69.8 °F - 62.6 °F 78% 29.85 in 10.0 mi Calm Calm - 0.04 in Thunderstorm Overcast
6:55 AM 69.8 °F - 62.6 °F 78% 29.86 in 10.0 mi West 3.5 mph - 0.05 in   Mostly Cloudy
7:15 AM 69.8 °F - 62.6 °F 78% 29.87 in 10.0 mi NNW 5.8 mph - N/A   Mostly Cloudy
7:35 AM 69.8 °F - 62.6 °F 78% 29.86 in 10.0 mi Calm Calm - N/A   Scattered Clouds
7:55 AM 69.8 °F - 64.4 °F 83% 29.86 in 10.0 mi East 4.6 mph - N/A   Partly Cloudy
8:15 AM 69.8 °F - 64.4 °F 83% 29.85 in 10.0 mi East 5.8 mph - N/A   Clear
8:35 AM 69.8 °F - 64.4 °F 83% 29.85 in 10.0 mi ESE 6.9 mph - N/A   Clear
8:55 AM 71.6 °F - 64.4 °F 78% 29.84 in 10.0 mi SE 11.5 mph - N/A   Clear
9:15 AM 73.4 °F - 64.4 °F 73% 29.83 in 10.0 mi SSE 13.8 mph - N/A   Clear
9:35 AM 77.0 °F - 64.4 °F 65% 29.83 in 10.0 mi SSE 15.0 mph - N/A   Clear
9:55 AM 80.6 °F 82.3 °F 64.4 °F 58% 29.82 in 10.0 mi South 19.6 mph 24.2 mph N/A   Clear
10:15 AM 78.8 °F - 64.4 °F 61% 29.81 in 10.0 mi South 16.1 mph - N/A   Clear
10:35 AM 82.4 °F 83.9 °F 64.4 °F 54% 29.80 in 10.0 mi South 20.7 mph 26.5 mph N/A   Clear
10:55 AM 84.2 °F 85.6 °F 64.4 °F 51% 29.79 in 10.0 mi South 23.0 mph 29.9 mph N/A   Clear
11:15 AM 87.8 °F 89.4 °F 64.4 °F 46% 29.78 in 10.0 mi South 23.0 mph 32.2 mph N/A   Clear
11:35 AM 87.8 °F 89.4 °F 64.4 °F 46% 29.77 in 10.0 mi South 26.5 mph 32.2 mph N/A   Clear
11:55 AM 89.6 °F 91.1 °F 64.4 °F 43% 29.76 in 10.0 mi South 24.2 mph 34.5 mph N/A   Clear
12:15 PM 91.4 °F 93.2 °F 64.4 °F 41% 29.75 in 10.0 mi South 25.3 mph 33.4 mph N/A   Clear
12:35 PM 91.4 °F 93.2 °F 64.4 °F 41% 29.74 in 10.0 mi South 24.2 mph 32.2 mph N/A   Clear
12:55 PM 93.2 °F 94.9 °F 64.4 °F 38% 29.73 in 10.0 mi South 24.2 mph 34.5 mph N/A   Clear
1:15 PM 91.4 °F 93.2 °F 64.4 °F 41% 29.72 in 10.0 mi South 27.6 mph 36.8 mph N/A   Clear
1:35 PM 93.2 °F 94.9 °F 64.4 °F 38% 29.71 in 10.0 mi South 28.8 mph 38.0 mph N/A   Clear
1:55 PM 95.0 °F 96.0 °F 62.6 °F 34% 29.70 in 10.0 mi South 26.5 mph 36.8 mph N/A   Clear
2:15 PM 96.8 °F 98.0 °F 62.6 °F 32% 29.69 in 10.0 mi South 32.2 mph 39.1 mph N/A   Clear
2:35 PM 98.6 °F 100.0 °F 62.6 °F 30% 29.69 in 10.0 mi South 32.2 mph 36.8 mph N/A   Clear
2:55 PM 98.6 °F 100.0 °F 62.6 °F 30% 29.68 in 10.0 mi South 27.6 mph 38.0 mph N/A   Clear
3:15 PM 100.4 °F 101.3 °F 60.8 °F 27% 29.67 in 10.0 mi SSW 27.6 mph 41.4 mph N/A   Clear
3:35 PM 98.6 °F 99.4 °F 60.8 °F 29% 29.66 in 10.0 mi South 33.4 mph 39.1 mph N/A   Clear
3:55 PM 96.8 °F 97.1 °F 60.8 °F 30% 29.67 in 10.0 mi South 25.3 mph 38.0 mph N/A   Clear
4:15 PM 98.6 °F 99.4 °F 60.8 °F 29% 29.65 in 10.0 mi South 32.2 mph 41.4 mph N/A   Clear
4:35 PM 98.6 °F 99.4 °F 60.8 °F 29% 29.64 in 10.0 mi South 28.8 mph 44.9 mph N/A   Clear
4:55 PM 98.6 °F 99.4 °F 60.8 °F 29% 29.64 in 10.0 mi South 32.2 mph 40.3 mph N/A   Clear
5:15 PM 98.6 °F 98.5 °F 59.0 °F 27% 29.60 in 10.0 mi South 28.8 mph 39.1 mph N/A   Clear
5:35 PM 98.6 °F 98.5 °F 59.0 °F 27% 29.56 in 10.0 mi South 28.8 mph 42.6 mph N/A   Clear
5:55 PM 96.8 °F 96.2 °F 59.0 °F 28% 29.61 in 10.0 mi South 19.6 mph 33.4 mph N/A   Clear
6:15 PM 95.0 °F 94.4 °F 59.0 °F 30% 29.58 in 10.0 mi South 29.9 mph 35.7 mph N/A   Clear
6:35 PM 93.2 °F 92.6 °F 59.0 °F 32% 29.59 in 10.0 mi South 23.0 mph 33.4 mph N/A Thunderstorm Clear
6:55 PM 93.2 °F 93.3 °F 60.8 °F 34% 29.62 in 10.0 mi SSW 13.8 mph 25.3 mph N/A   Clear
7:15 PM 82.4 °F 83.4 °F 62.6 °F 51% 29.69 in 10.0 mi NW 13.8 mph 24.2 mph N/A Thunderstorm Thunderstorm
7:35 PM 75.2 °F - 62.6 °F 65% 29.71 in 7.0 mi NNW 16.1 mph 32.2 mph 0.09 in Thunderstorm Thunderstorm
7:55 PM 71.6 °F - 64.4 °F 78% 29.67 in 10.0 mi East 6.9 mph - 0.10 in   Overcast
8:15 PM 71.6 °F - 64.4 °F 78% 29.64 in 10.0 mi North 8.1 mph - 0.05 in Thunderstorm Thunderstorm
8:35 PM 69.8 °F - 62.6 °F 78% 29.70 in 1.8 mi South 17.3 mph 62.1 mph 1.14 in Thunderstorm Thunderstorm
9:15 PM 69.8 °F - 64.4 °F 83% 29.72 in 10.0 mi East 12.7 mph - N/A   Mostly Cloudy
9:35 PM 69.8 °F - 64.4 °F 83% 29.72 in 10.0 mi NE 10.4 mph - N/A   Partly Cloudy
9:55 PM 69.8 °F - 64.4 °F 83% 29.79 in 10.0 mi SE 5.8 mph - N/A Thunderstorm Scattered Clouds
10:15 PM 71.6 °F - 64.4 °F 78% 29.75 in 10.0 mi ENE 10.4 mph - N/A   Mostly Cloudy
10:35 PM 69.8 °F - 64.4 °F 83% 29.72 in 10.0 mi NE 8.1 mph - N/A   Mostly Cloudy
10:55 PM 69.8 °F - 64.4 °F 83% 29.72 in 10.0 mi NE 9.2 mph - N/A   Partly Cloudy
11:15 PM 69.8 °F - 64.4 °F 83% 29.77 in 10.0 mi NNE 11.5 mph - N/A   Mostly Cloudy
11:35 PM 69.8 °F - 64.4 °F 83% 29.86 in 10.0 mi North 27.6 mph 39.1 mph N/A Thunderstorm Overcast
11:55 PM 62.6 °F - 55.4 °F 77% 29.84 in 10.0 mi North 18.4 mph 34.5 mph 0.02 in Thunderstorm Thunderstorm